SCP
0 0 0 0 -0 -0 -0 -0 -0 0 0 1 1 1 1 1 1 0 0 0 0 0 0 0 0 0 0 0 0 0 0 0 0 0 0 0 0 0 0 0 0 0 0
0 1 0 0 0 0 0 0 0 0 1 1 1 1 1 1 1 0 0 0 0 0 0 0 0 0 0 0 0 0 0 0 0 0 0 0 0 0 0 0 0 0 0
0 0 0 0 0 1 1 1 0 0 1 1 1 1 1 1 1 0 0 0 0 0 0 0 0 0 0 0 0 0 0 0 0 0 0 0 0 0 0 0 0 0 0
0 0 0 1 1 1 1 1 1 1 1 1 1 1 1 1 1 0 0 0 0 0 0 0 0 0 0 0 0 0 0 0 0 0 0 0 0 0 0 0 0 0 0
0 0 0 0 1 1 1 1 1 1 1 1 1 1 1 1 0 0 0 0 0 0 0 0 0 0 0 0 0 0 0 0 0 0 0 0 0 0 0 0 0 0 0
0 0 1 0 1 1 1 1 1 1 1 1 1 1 1 0 0 0 0 0 0 0 0 0 0 0 0 0 0 0 0 0 0 0 0 0 0 0 0 0 0 0 0
0 0 1 0 1 1 1 1 1 1 1 1 1 1 0 0 0 0 0 0 0 0 0 0 0 0 0 0 0 0 0 0 0 0 0 0 0 0 0 0 0 0 0
0 0 0 0 1 1 1 1 1 1 1 0 0 0 0 0 0 0 0 0 0 0 0 0 0 0 0 0 0 0 0 0 0 0 0 0 0 0 0 0 0 0 0
0 0 0 0 0 0 0 0 0 0 0 0 0 0 0 0 0 0 0 0 0 0 0 0 0 0 0 0 0 0 0 0 0 0 0 0 0 0 0 0 0 0 0
0 0 0 0 0 0 0 0 0 0 0 0 0 0 0 0 0 0 0 0 0 0 0 0 0 0 0 0 0 0 0 0 0 0 0 0 0 0 0 0 0 0 0
0 0 0 0 0 0 0 0 0 0 0 0 0 0 0 0 0 0 0 0 0 0 0 0 0 0 0 0 0 0 0 0 0 0 0 0 0 0 0 0 0 0 0
0 0 0 0 0 0 0 0 0 0 0 0 0 0 0 0 0 0 0 0 0 0 0 0 0 0 0 0 0 0 0 0 0 0 0 0 0 0 0 0 0 0 0
0 0 0 0 0 0 0 0 0 0 0 0 0 0 0 0 0 0 0 0 0 0 0 0 0 0 0 0 0 0 0 0 0 0 0 0 0 0 0 0 0 0 0
0 0 0 0 0 0 0 0 0 0 0 0 0 0 0 0 0 0 0 0 0 0 0 0 0 0 0 0 0 0 0 0 0 0 0 0 0 0 0 0 0 0 0
0 0 0 0 0 0 0 0 0 0 0 0 0 0 0 0 0 0 0 0 0 0 0 0 0 0 0 0 0 0 0 0 0 0 0 0 0 0 0 0 0 0 0
0 0 0 0 0 0 0 0 0 0 0 0 0 0 0 0 0 0 0 0 0 0 0 0 0 0 0 0 0 0 0 0 0 0 0 0 0 0 0 0 0 0 0
0 0 -0 0 0 0 0 0 0 0 0 0 0 0 0 0 0 0 0 0 0 0 0 0 0 0 0 0 0 0 0 0 0 0 0 0 0 0 0 0 0 0 0
0 0 0 0 0 0 0 0 0 0 0 0 0 0 0 0 0 0 0 0 0 0 0 0 0 0 0 0 0 0 0 0 0 0 0 0 0 0 0 0 0 0 0
0 0 0 0 0 0 0 0 0 0 0 0 0 0 0 0 0 0 0 0 0 0 0 0 0 0 0 0 0 0 0 0 0 0 0 0 0 0 0 0 0 0 0
0 0 0 1 0 0 0 0 0 0 0 0 0 0 0 0 0 0 0 0 0 0 0 0 0 0 0 0 0 0 0 0 0 0 0 0 0 0 0 0 0 0 0
0 0 1 1 0 0 0 0 0 0 0 0 0 0 0 0 0 0 0 0 0 0 0 0 0 0 0 0 0 0 0 0 0 0 0 0 0 0 0 0 0 0 0
0 0 1 0 0 0 0 0 0 0 0 0 0 0 0 0 0 0 0 0 0 0 0 0 0 0 0 0 0 0 0 0 0 0 0 0 0 0 0 0 0 0 0
0 0 1 0 0 0 0 0 0 0 0 0 0 0 0 0 0 0 0 0 0 0 0 0 0 0 0 0 0 0 0 0 0 0 0 0 0 0 0 0 0 0 0
0 0 0 0 0 0 0 0 0 0 0 0 0 0 0 0 0 0 0 0 0 0 0 0 0 0 0 0 0 0 0 0 0 0 0 0 0 0 0 0 0 0 0
0 0 0 0 0 0 0 0 0 0 0 0 0 0 0 0 0 0 0 0 0 0 0 0 0 0 0 0 0 0 0 0 0 0 0 0 0 0 0 0 0 0 0
0 0 0 0 0 0 0 0 0 0 0 0 0 0 0 0 0 0 0 0 0 0 0 0 0 0 0 0 0 0 0 0 0 0 0 0 0 0 0 0 0 0 0
Wind_Speed_500mb
32 35 38 42 47 46 48 48 44 45 48 47 40 35 30 27 27 29 38 31 33 32 31 41 41 34 22 30 30 27 30 34 33 36 36 37 26 20 13 31 34 30 32
31 32 32 39 45 46 49 50 47 49 48 41 32 28 27 22 22 29 30 31 27 31 39 35 25 29 22 24 26 28 32 31 28 31 38 29 27 13 32 34 28 18 24
36 31 30 33 37 44 46 45 42 42 37 36 41 40 37 34 31 26 26 25 30 36 30 31 30 31 32 22 26 26 27 29 27 25 25 24 23 43 22 33 32 26 36
28 30 29 31 34 29 35 36 37 31 29 30 32 32 23 21 19 19 23 29 27 26 28 30 32 35 29 31 23 23 25 24 28 27 25 29 34 41 36 35 37 37 38
21 26 26 28 28 34 27 31 29 27 26 30 28 23 21 25 24 24 24 19 21 26 30 32 34 35 25 22 27 21 22 22 26 27 28 29 29 31 36 47 43 44 37
16 21 24 28 27 27 28 30 30 30 30 30 28 25 28 21 18 15 10 11 16 23 29 29 31 31 25 19 16 17 18 20 18 18 20 24 27 31 34 41 46 49 42
20 27 29 27 30 31 30 29 32 29 28 27 26 27 24 21 16 10 9 11 12 16 24 28 25 14 16 13 13 16 15 14 14 18 20 25 29 31 35 39 48 51 51
24 31 30 31 33 34 32 29 30 29 28 28 27 24 21 17 13 12 12 13 11 13 27 20 16 14 13 12 16 12 16 18 20 25 29 29 32 35 36 38 43 58 56
26 31 32 35 36 35 32 30 30 29 27 27 27 25 20 14 12 13 14 15 17 13 15 12 11 12 14 16 18 18 23 24 26 31 32 36 35 37 40 40 44 45 62
25 32 35 38 37 34 31 29 27 27 28 29 26 22 16 13 13 13 13 15 16 15 12 10 13 15 17 19 21 21 24 31 35 37 40 43 43 44 44 40 46 44 46
28 35 36 40 39 34 31 30 29 29 29 28 24 18 15 13 12 12 13 12 14 13 13 15 16 21 23 23 24 26 30 35 39 43 50 52 50 47 43 42 42 36 42
27 35 40 43 42 37 34 32 31 30 28 26 21 18 14 11 9 9 11 13 11 15 17 21 22 25 27 26 26 29 33 35 38 42 44 48 42 43 44 40 41 38 40
29 35 37 44 42 39 36 34 33 30 29 26 21 17 11 6 6 11 13 13 19 19 21 24 25 27 26 25 28 30 33 34 37 41 42 44 42 46 43 38 36 35 36
36 38 42 44 43 43 40 38 37 36 30 26 21 14 9 7 10 13 16 20 21 22 25 25 25 26 25 28 31 31 35 37 39 41 43 43 49 44 41 35 36 38 38
39 40 45 45 47 46 44 41 41 37 34 25 18 13 11 14 15 18 21 22 21 22 25 26 28 26 29 31 32 39 36 40 43 46 45 43 52 48 42 38 39 42 39
38 46 47 49 52 52 50 50 45 43 33 24 17 13 12 13 19 20 19 18 18 22 24 27 26 29 31 41 48 49 40 39 45 48 48 46 42 41 39 39 41 40 39
39 51 59 61 59 58 55 54 49 38 28 20 15 10 13 17 15 14 15 17 20 23 26 27 29 33 36 45 50 46 46 42 48 54 47 47 41 45 40 35 44 40 38
29 44 51 55 56 47 44 40 38 32 25 19 12 12 15 10 10 14 16 19 20 23 25 29 31 35 37 47 43 41 48 46 53 53 51 52 42 37 41 44 43 39 39
24 39 48 51 50 48 46 43 40 32 24 16 12 11 8 9 11 15 17 19 22 24 27 30 33 35 37 39 37 47 50 48 53 56 51 56 50 45 42 45 46 48 45
14 32 44 51 54 51 50 45 40 31 22 16 13 9 7 10 11 15 18 20 21 24 27 32 34 36 30 34 45 45 47 51 52 55 52 50 52 49 50 50 48 52 53
12 23 41 54 54 56 53 44 36 27 21 15 10 9 7 9 12 16 20 19 20 24 29 33 33 30 34 38 50 57 60 50 53 46 44 40 44 49 54 50 48 49 52
12 28 38 44 49 51 48 44 34 26 17 14 10 6 5 7 12 17 18 19 21 25 31 33 34 35 37 41 47 56 64 71 60 54 51 52 53 54 54 49 48 46 47
16 28 38 42 43 45 43 42 33 22 18 12 8 5 5 8 11 13 15 17 22 27 32 35 37 42 42 42 49 55 69 65 62 53 60 69 56 48 42 41 39 40 44
22 35 42 40 43 40 39 33 27 25 18 12 5 4 4 8 8 13 17 21 26 29 33 35 39 45 47 49 49 67 66 58 53 57 71 61 49 38 32 33 35 36 29
29 38 45 43 48 39 39 31 26 22 17 11 7 3 4 6 13 18 21 22 26 29 37 33 38 47 52 52 70 75 68 62 62 62 54 47 43 39 38 34 30 29 28
39 41 47 52 49 46 36 33 27 19 15 12 6 1 3 12 17 21 25 30 34 42 41 42 50 50 52 65 72 61 59 57 51 49 45 44 41 38 33 34 33 24 26
Wind_Direction_500mb
216 213 209 216 221 228 235 240 242 243 241 237 229 222 221 220 227 236 250 255 258 268 278 287 292 298 299 293 304 308 311 311 310 314 310 310 290 294 280 310 290 286 291
204 199 211 217 224 233 239 243 246 246 244 234 217 212 210 214 219 240 246 252 264 276 286 289 293 291 295 297 302 308 313 314 311 313 320 324 306 285 300 290 304 300 292
209 214 210 212 224 234 240 240 239 242 236 215 221 229 235 237 237 239 246 260 276 282 286 295 295 297 307 299 296 304 308 309 314 308 312 322 308 310 308 304 292 296 302
220 216 215 213 221 221 225 225 228 228 224 215 218 229 221 200 204 214 250 273 272 282 290 294 298 300 299 299 307 308 303 308 308 309 303 293 295 304 306 306 299 299 302
216 212 212 212 204 217 206 207 203 199 200 201 206 206 185 204 231 248 264 254 279 283 291 298 301 304 312 297 304 304 300 303 301 306 305 306 307 302 303 307 308 307 308
211 201 198 211 195 180 182 190 184 190 197 201 205 190 210 225 230 226 228 260 279 295 298 303 307 309 304 310 307 298 304 296 301 307 317 312 313 314 315 311 310 312 315
213 199 199 195 182 178 174 173 183 192 195 199 205 208 220 224 219 225 224 275 282 297 296 315 313 308 302 306 301 293 298 304 309 314 315 309 310 315 315 314 311 310 313
216 208 205 189 183 180 173 173 181 193 199 207 208 210 202 198 216 233 272 276 283 289 303 313 315 315 304 290 292 310 302 298 306 306 308 312 313 308 306 310 308 306 308
214 206 198 188 185 182 180 176 183 192 200 201 192 192 197 202 225 267 281 293 302 295 307 312 308 306 295 289 291 306 294 293 303 303 308 309 310 307 303 301 305 300 300
210 199 195 187 186 186 177 176 176 185 188 184 185 191 200 224 252 278 297 302 298 307 300 290 299 302 300 302 300 301 298 297 303 302 301 298 299 298 299 299 303 299 293
208 195 194 185 188 185 182 177 172 177 182 180 185 194 212 237 267 300 313 309 299 295 297 292 295 300 302 299 295 298 304 302 303 304 306 300 293 293 291 301 300 299 298
203 195 192 184 189 187 184 180 176 176 179 183 191 206 224 250 293 308 301 293 291 294 298 298 301 300 297 293 294 298 302 305 307 310 307 300 294 290 296 300 296 304 309
199 197 193 188 190 187 183 178 177 173 178 187 201 214 232 260 275 294 292 290 301 302 301 297 297 299 294 292 294 296 302 305 308 312 311 306 298 294 295 291 296 300 302
206 198 193 189 186 185 182 179 179 183 185 192 205 216 237 255 275 288 293 296 304 305 304 300 296 296 295 295 296 297 300 304 306 309 312 311 305 296 292 291 293 297 298
210 204 195 192 187 183 180 182 183 186 191 197 200 214 243 271 284 288 288 299 303 303 303 301 298 295 297 304 293 299 295 300 302 307 311 313 318 297 297 293 295 292 298
221 205 201 195 191 187 184 185 189 195 191 188 195 214 252 280 281 284 294 295 300 305 298 301 297 298 301 293 302 304 293 298 302 305 305 306 310 299 300 301 307 303 298
227 211 200 198 195 191 189 187 188 182 183 181 182 225 269 273 277 287 291 296 302 309 303 301 302 301 302 297 307 304 300 301 302 300 300 304 308 309 306 305 310 310 307
235 215 206 202 196 188 178 180 181 179 177 176 194 249 261 262 270 289 292 298 308 310 304 303 305 305 308 301 309 307 309 307 305 301 298 295 297 302 304 304 306 311 312
232 208 202 198 189 180 176 174 175 177 171 181 223 237 237 253 281 290 297 302 308 305 304 305 306 307 308 301 313 315 315 311 307 304 297 294 292 294 296 300 302 307 316
233 194 189 184 181 173 171 174 175 170 172 210 220 208 227 269 284 291 301 305 301 306 308 307 308 305 312 311 309 316 322 317 312 305 298 294 296 295 294 296 298 302 312
208 188 182 180 174 168 172 167 165 169 194 211 204 230 250 271 285 297 309 302 302 305 311 312 313 314 313 313 310 318 325 322 320 318 315 302 293 292 293 290 289 296 305
188 177 180 177 169 164 167 163 160 184 204 193 211 220 252 281 287 304 303 296 303 317 319 317 318 319 316 315 316 318 322 322 316 312 310 306 300 297 287 285 286 294 297
196 175 172 168 164 161 161 161 178 188 186 187 182 205 260 292 303 306 303 317 312 317 321 318 320 320 319 318 319 317 317 317 308 308 310 314 311 308 295 287 286 283 290
184 168 165 161 150 150 156 171 176 176 166 158 184 219 273 303 312 307 310 311 314 314 321 318 320 319 319 319 316 321 321 317 310 307 312 316 315 312 300 290 288 285 281
175 165 158 156 156 149 160 169 169 155 154 148 161 226 324 322 305 313 311 309 309 308 317 314 317 322 318 316 318 322 321 320 315 310 317 325 324 317 315 308 299 290 275
170 161 153 162 155 159 163 157 153 151 144 134 132 227 338 306 312 318 321 321 322 322 326 323 323 324 322 323 327 325 323 321 327 332 330 323 324 323 316 310 305 289 285
Wind_Speed_850mb
32 35 38 42 47 46 48 48 44 45 48 47 40 35 30 27 27 29 38 31 33 32 31 41 41 34 22 30 30 27 30 34 33 36 36 37 26 20 13 31 34 30 32
31 32 32 39 45 46 49 50 47 49 48 41 32 28 27 22 22 29 30 31 27 31 39 35 25 29 22 24 26 28 32 31 28 31 38 29 27 13 32 34 28 18 24
36 31 30 33 37 44 46 45 42 42 37 36 41 40 37 34 31 26 26 25 30 36 30 31 30 31 32 22 26 26 27 29 27 25 25 24 23 43 22 33 32 26 36
28 30 29 31 34 29 35 36 37 31 29 30 32 32 23 21 19 19 23 29 27 26 28 30 32 35 29 31 23 23 25 24 28 27 25 29 34 41 36 35 37 37 38
21 26 26 28 28 34 27 31 29 27 26 30 28 23 21 25 24 24 24 19 21 26 30 32 34 35 25 22 27 21 22 22 26 27 28 29 29 31 36 47 43 44 37
16 21 24 28 27 27 28 30 30 30 30 30 28 25 28 21 18 15 10 11 16 23 29 29 31 31 25 19 16 17 18 20 18 18 20 24 27 31 34 41 46 49 42
20 27 29 27 30 31 30 29 32 29 28 27 26 27 24 21 16 10 9 11 12 16 24 28 25 14 16 13 13 16 15 14 14 18 20 25 29 31 35 39 48 51 51
24 31 30 31 33 34 32 29 30 29 28 28 27 24 21 17 13 12 12 13 11 13 27 20 16 14 13 12 16 12 16 18 20 25 29 29 32 35 36 38 43 58 56
26 31 32 35 36 35 32 30 30 29 27 27 27 25 20 14 12 13 14 15 17 13 15 12 11 12 14 16 18 18 23 24 26 31 32 36 35 37 40 40 44 45 62
25 32 35 38 37 34 31 29 27 27 28 29 26 22 16 13 13 13 13 15 16 15 12 10 13 15 17 19 21 21 24 31 35 37 40 43 43 44 44 40 46 44 46
28 35 36 40 39 34 31 30 29 29 29 28 24 18 15 13 12 12 13 12 14 13 13 15 16 21 23 23 24 26 30 35 39 43 50 52 50 47 43 42 42 36 42
27 35 40 43 42 37 34 32 31 30 28 26 21 18 14 11 9 9 11 13 11 15 17 21 22 25 27 26 26 29 33 35 38 42 44 48 42 43 44 40 41 38 40
29 35 37 44 42 39 36 34 33 30 29 26 21 17 11 6 6 11 13 13 19 19 21 24 25 27 26 25 28 30 33 34 37 41 42 44 42 46 43 38 36 35 36
36 38 42 44 43 43 40 38 37 36 30 26 21 14 9 7 10 13 16 20 21 22 25 25 25 26 25 28 31 31 35 37 39 41 43 43 49 44 41 35 36 38 38
39 40 45 45 47 46 44 41 41 37 34 25 18 13 11 14 15 18 21 22 21 22 25 26 28 26 29 31 32 39 36 40 43 46 45 43 52 48 42 38 39 42 39
38 46 47 49 52 52 50 50 45 43 33 24 17 13 12 13 19 20 19 18 18 22 24 27 26 29 31 41 48 49 40 39 45 48 48 46 42 41 39 39 41 40 39
39 51 59 61 59 58 55 54 49 38 28 20 15 10 13 17 15 14 15 17 20 23 26 27 29 33 36 45 50 46 46 42 48 54 47 47 41 45 40 35 44 40 38
29 44 51 55 56 47 44 40 38 32 25 19 12 12 15 10 10 14 16 19 20 23 25 29 31 35 37 47 43 41 48 46 53 53 51 52 42 37 41 44 43 39 39
24 39 48 51 50 48 46 43 40 32 24 16 12 11 8 9 11 15 17 19 22 24 27 30 33 35 37 39 37 47 50 48 53 56 51 56 50 45 42 45 46 48 45
14 32 44 51 54 51 50 45 40 31 22 16 13 9 7 10 11 15 18 20 21 24 27 32 34 36 30 34 45 45 47 51 52 55 52 50 52 49 50 50 48 52 53
12 23 41 54 54 56 53 44 36 27 21 15 10 9 7 9 12 16 20 19 20 24 29 33 33 30 34 38 50 57 60 50 53 46 44 40 44 49 54 50 48 49 52
12 28 38 44 49 51 48 44 34 26 17 14 10 6 5 7 12 17 18 19 21 25 31 33 34 35 37 41 47 56 64 71 60 54 51 52 53 54 54 49 48 46 47
16 28 38 42 43 45 43 42 33 22 18 12 8 5 5 8 11 13 15 17 22 27 32 35 37 42 42 42 49 55 69 65 62 53 60 69 56 48 42 41 39 40 44
22 35 42 40 43 40 39 33 27 25 18 12 5 4 4 8 8 13 17 21 26 29 33 35 39 45 47 49 49 67 66 58 53 57 71 61 49 38 32 33 35 36 29
29 38 45 43 48 39 39 31 26 22 17 11 7 3 4 6 13 18 21 22 26 29 37 33 38 47 52 52 70 75 68 62 62 62 54 47 43 39 38 34 30 29 28
39 41 47 52 49 46 36 33 27 19 15 12 6 1 3 12 17 21 25 30 34 42 41 42 50 50 52 65 72 61 59 57 51 49 45 44 41 38 33 34 33 24 26
Wind_Direction_850mb
216 213 209 216 221 228 235 240 242 243 241 237 229 222 221 220 227 236 250 255 258 268 278 287 292 298 299 293 304 308 311 311 310 314 310 310 290 294 280 310 290 286 291
204 199 211 217 224 233 239 243 246 246 244 234 217 212 210 214 219 240 246 252 264 276 286 289 293 291 295 297 302 308 313 314 311 313 320 324 306 285 300 290 304 300 292
209 214 210 212 224 234 240 240 239 242 236 215 221 229 235 237 237 239 246 260 276 282 286 295 295 297 307 299 296 304 308 309 314 308 312 322 308 310 308 304 292 296 302
220 216 215 213 221 221 225 225 228 228 224 215 218 229 221 200 204 214 250 273 272 282 290 294 298 300 299 299 307 308 303 308 308 309 303 293 295 304 306 306 299 299 302
216 212 212 212 204 217 206 207 203 199 200 201 206 206 185 204 231 248 264 254 279 283 291 298 301 304 312 297 304 304 300 303 301 306 305 306 307 302 303 307 308 307 308
211 201 198 211 195 180 182 190 184 190 197 201 205 190 210 225 230 226 228 260 279 295 298 303 307 309 304 310 307 298 304 296 301 307 317 312 313 314 315 311 310 312 315
213 199 199 195 182 178 174 173 183 192 195 199 205 208 220 224 219 225 224 275 282 297 296 315 313 308 302 306 301 293 298 304 309 314 315 309 310 315 315 314 311 310 313
216 208 205 189 183 180 173 173 181 193 199 207 208 210 202 198 216 233 272 276 283 289 303 313 315 315 304 290 292 310 302 298 306 306 308 312 313 308 306 310 308 306 308
214 206 198 188 185 182 180 176 183 192 200 201 192 192 197 202 225 267 281 293 302 295 307 312 308 306 295 289 291 306 294 293 303 303 308 309 310 307 303 301 305 300 300
210 199 195 187 186 186 177 176 176 185 188 184 185 191 200 224 252 278 297 302 298 307 300 290 299 302 300 302 300 301 298 297 303 302 301 298 299 298 299 299 303 299 293
208 195 194 185 188 185 182 177 172 177 182 180 185 194 212 237 267 300 313 309 299 295 297 292 295 300 302 299 295 298 304 302 303 304 306 300 293 293 291 301 300 299 298
203 195 192 184 189 187 184 180 176 176 179 183 191 206 224 250 293 308 301 293 291 294 298 298 301 300 297 293 294 298 302 305 307 310 307 300 294 290 296 300 296 304 309
199 197 193 188 190 187 183 178 177 173 178 187 201 214 232 260 275 294 292 290 301 302 301 297 297 299 294 292 294 296 302 305 308 312 311 306 298 294 295 291 296 300 302
206 198 193 189 186 185 182 179 179 183 185 192 205 216 237 255 275 288 293 296 304 305 304 300 296 296 295 295 296 297 300 304 306 309 312 311 305 296 292 291 293 297 298
210 204 195 192 187 183 180 182 183 186 191 197 200 214 243 271 284 288 288 299 303 303 303 301 298 295 297 304 293 299 295 300 302 307 311 313 318 297 297 293 295 292 298
221 205 201 195 191 187 184 185 189 195 191 188 195 214 252 280 281 284 294 295 300 305 298 301 297 298 301 293 302 304 293 298 302 305 305 306 310 299 300 301 307 303 298
227 211 200 198 195 191 189 187 188 182 183 181 182 225 269 273 277 287 291 296 302 309 303 301 302 301 302 297 307 304 300 301 302 300 300 304 308 309 306 305 310 310 307
235 215 206 202 196 188 178 180 181 179 177 176 194 249 261 262 270 289 292 298 308 310 304 303 305 305 308 301 309 307 309 307 305 301 298 295 297 302 304 304 306 311 312
232 208 202 198 189 180 176 174 175 177 171 181 223 237 237 253 281 290 297 302 308 305 304 305 306 307 308 301 313 315 315 311 307 304 297 294 292 294 296 300 302 307 316
233 194 189 184 181 173 171 174 175 170 172 210 220 208 227 269 284 291 301 305 301 306 308 307 308 305 312 311 309 316 322 317 312 305 298 294 296 295 294 296 298 302 312
208 188 182 180 174 168 172 167 165 169 194 211 204 230 250 271 285 297 309 302 302 305 311 312 313 314 313 313 310 318 325 322 320 318 315 302 293 292 293 290 289 296 305
188 177 180 177 169 164 167 163 160 184 204 193 211 220 252 281 287 304 303 296 303 317 319 317 318 319 316 315 316 318 322 322 316 312 310 306 300 297 287 285 286 294 297
196 175 172 168 164 161 161 161 178 188 186 187 182 205 260 292 303 306 303 317 312 317 321 318 320 320 319 318 319 317 317 317 308 308 310 314 311 308 295 287 286 283 290
184 168 165 161 150 150 156 171 176 176 166 158 184 219 273 303 312 307 310 311 314 314 321 318 320 319 319 319 316 321 321 317 310 307 312 316 315 312 300 290 288 285 281
175 165 158 156 156 149 160 169 169 155 154 148 161 226 324 322 305 313 311 309 309 308 317 314 317 322 318 316 318 322 321 320 315 310 317 325 324 317 315 308 299 290 275
170 161 153 162 155 159 163 157 153 151 144 134 132 227 338 306 312 318 321 321 322 322 326 323 323 324 322 323 327 325 323 321 327 332 330 323 324 323 316 310 305 289 285